This is the latest recevied weather packets stored in our database for station/object N8BAP. If no packets are shown the sender has not sent any weather packets the latest 10 day(s).
| Time | Temp. | Humidity | Pressure | Rain* | Wind** | Luminosity | Snow |
|---|---|---|---|---|---|---|---|
| 1778192834 | 13.33° C | 43% | 1019.2 hPa | 0 mm | - | 189 W/m² | - |
| 1778192530 | 13.89° C | 42% | 1019.1 hPa | 0 mm | - | 70 W/m² | - |
| 1778192227 | 13.89° C | 43% | 1019.1 hPa | 0 mm | - | 277 W/m² | - |
| 1778191923 | 13.33° C | 41% | 1019.2 hPa | 0 mm | - | 291 W/m² | - |
| 1778191620 | 13.89° C | 42% | 1019.2 hPa | 0 mm | - | 152 W/m² | - |
| 1778191319 | 13.89° C | 44% | 1019.2 hPa | 0 mm | - | 95 W/m² | - |
| 1778191014 | 15° C | 39% | 1019.1 hPa | 0 mm | - | 78 W/m² | - |
| 1778190712 | 15° C | 42% | 1018.9 hPa | 0 mm | - | 364 W/m² | - |
| 1778190409 | 15° C | 40% | 1019.1 hPa | 0 mm | - | 376 W/m² | - |
| 1778190105 | 14.44° C | 39% | 1019.1 hPa | 0 mm | - | 388 W/m² | - |
| 1778189801 | 14.44° C | 40% | 1019 hPa | 0 mm | - | 105 W/m² | - |
| 1778189499 | 14.44° C | 43% | 1019.1 hPa | 0 mm | - | 298 W/m² | - |
| 1778189195 | 14.44° C | 38% | 1018.8 hPa | 0 mm | - | 426 W/m² | - |
| 1778188892 | 15° C | 44% | 1018.9 hPa | 0 mm | - | 140 W/m² | - |
| 1778188589 | 15° C | 41% | 1018.9 hPa | 0 mm | - | 462 W/m² | - |
| 1778188284 | 15° C | 40% | 1019 hPa | 0 mm | - | 144 W/m² | - |
| 1778187982 | 14.44° C | 42% | 1018.9 hPa | 0 mm | - | 319 W/m² | - |
| 1778187679 | 14.44° C | 41% | 1018.8 hPa | 0 mm | - | 181 W/m² | - |
| 1778187375 | 15.56° C | 40% | 1018.6 hPa | 0 mm | - | 202 W/m² | - |
| 1778187071 | 15° C | 39% | 1018.8 hPa | 0 mm | - | 512 W/m² | - |
| 1778186768 | 15° C | 39% | 1018.6 hPa | 0 mm | - | 561 W/m² | - |
| 1778186465 | 15° C | 41% | 1018.6 hPa | 0 mm | - | 539 W/m² | - |
| 1778186163 | 15.56° C | 41% | 1018.6 hPa | 0 mm | - | 547 W/m² | - |
| 1778185861 | 15° C | 42% | 1018.6 hPa | 0 mm | - | 530 W/m² | - |
| 1778185556 | 15° C | 41% | 1018.5 hPa | 0 mm | - | 575 W/m² | - |
* Rain latest hour (hover to see other rain measurements)
** Current wind speed in m/s (hover to see current wind gust speed)